Time,TemperatureF,DewpointF,PressureIn,WindDirection,WindDirectionDegrees,WindSpeedMPH,WindSpeedGustMPH,Humidity,HourlyPrecipIn,Conditions,Clouds,dailyrainin,SoftwareType,DateUTC
2013-08-06 00:07:00,70.5,69.9,29.98,SSE,157,2.7,-999.0,98,-99.99,,,0.00,Acu-Link.com,2013-08-06 04:07:00,
2013-08-06 00:22:00,70.5,69.9,29.97,SSE,157,2.7,-999.0,98,-99.99,,,0.00,Acu-Link.com,2013-08-06 04:22:00,
2013-08-06 00:37:00,70.7,70.1,29.98,South,180,4.2,-999.0,98,-99.99,,,0.00,Acu-Link.com,2013-08-06 04:37:00,
2013-08-06 00:52:00,70.7,43.1,29.97,South,180,0.0,-999.0,37,-99.99,,,0.00,Acu-Link.com,2013-08-06 04:52:00,
2013-08-06 01:08:00,70.5,-34.5,29.97,South,180,0.0,-999.0,1,-99.99,,,0.00,Acu-Link.com,2013-08-06 05:08:00,
2013-08-06 01:23:00,70.3,-34.6,29.97,South,180,2.2,-999.0,1,-99.99,,,0.00,Acu-Link.com,2013-08-06 05:23:00,
2013-08-06 01:38:00,70.3,-34.6,29.98,South,180,2.2,-999.0,1,-99.99,,,0.00,Acu-Link.com,2013-08-06 05:38:00,
2013-08-06 01:54:00,70.3,-34.6,29.97,SSW,202,0.0,-999.0,1,-99.99,,,0.00,Acu-Link.com,2013-08-06 05:54:00,
2013-08-06 02:09:00,70.2,-34.7,29.98,SW,225,1.7,-999.0,1,-99.99,,,0.00,Acu-Link.com,2013-08-06 06:09:00,
2013-08-06 02:24:00,70.2,-34.7,29.98,SW,225,2.2,-999.0,1,-99.99,,,0.00,Acu-Link.com,2013-08-06 06:24:00,
2013-08-06 02:39:00,69.8,-34.9,29.98,SSW,202,2.2,-999.0,1,-99.99,,,0.00,Acu-Link.com,2013-08-06 06:39:00,
2013-08-06 02:55:00,69.6,-35.1,29.97,SSW,202,0.0,-999.0,1,-99.99,,,0.00,Acu-Link.com,2013-08-06 06:55:00,
2013-08-06 03:10:00,69.4,-35.2,29.97,SSW,202,0.0,-999.0,1,-99.99,,,0.00,Acu-Link.com,2013-08-06 07:10:00,
2013-08-06 03:25:00,69.3,-35.2,29.97,SSW,202,0.0,-999.0,1,-99.99,,,0.00,Acu-Link.com,2013-08-06 07:25:00,
2013-08-06 03:40:00,69.1,-35.4,29.97,SSW,202,0.0,-999.0,1,-99.99,,,0.00,Acu-Link.com,2013-08-06 07:40:00,
2013-08-06 03:56:00,68.9,-35.5,29.97,SSW,202,0.0,-999.0,1,-99.99,,,0.00,Acu-Link.com,2013-08-06 07:56:00,
2013-08-06 04:11:00,68.9,-35.5,29.96,SSW,202,0.0,-999.0,1,-99.99,,,0.00,Acu-Link.com,2013-08-06 08:11:00,
2013-08-06 04:26:00,68.9,-35.5,29.96,SSW,202,0.0,-999.0,1,-99.99,,,0.00,Acu-Link.com,2013-08-06 08:26:00,
2013-08-06 04:41:00,68.7,-35.6,29.96,SSW,202,0.0,-999.0,1,-99.99,,,0.00,Acu-Link.com,2013-08-06 08:41:00,
2013-08-06 04:56:00,68.9,-35.5,29.96,SSW,202,0.0,-999.0,1,-99.99,,,0.00,Acu-Link.com,2013-08-06 08:56:00,
2013-08-06 05:12:00,68.7,-35.6,29.96,SSW,202,0.0,-999.0,1,-99.99,,,0.00,Acu-Link.com,2013-08-06 09:12:00,
2013-08-06 05:27:00,68.7,-35.6,29.96,SSW,202,0.0,-999.0,1,-99.99,,,0.00,Acu-Link.com,2013-08-06 09:27:00,
2013-08-06 05:42:00,68.5,-35.7,29.96,SSW,202,0.0,-999.0,1,-99.99,,,0.00,Acu-Link.com,2013-08-06 09:42:00,
2013-08-06 05:58:00,68.0,-36.0,29.96,SSW,202,0.0,-999.0,1,-99.99,,,0.00,Acu-Link.com,2013-08-06 09:58:00,
2013-08-06 06:13:00,68.5,-35.7,29.96,SSW,202,0.0,-999.0,1,-99.99,,,0.00,Acu-Link.com,2013-08-06 10:13:00,
2013-08-06 06:28:00,68.7,-35.6,29.96,SSW,202,0.0,-999.0,1,-99.99,,,0.00,Acu-Link.com,2013-08-06 10:28:00,
2013-08-06 06:44:00,69.3,-35.2,29.96,SSW,202,0.0,-999.0,1,-99.99,,,0.00,Acu-Link.com,2013-08-06 10:44:00,
2013-08-06 06:59:00,69.8,-34.9,29.97,SSW,202,0.0,-999.0,1,-99.99,,,0.00,Acu-Link.com,2013-08-06 10:59:00,
2013-08-06 07:14:00,70.7,-34.4,29.97,SSW,202,0.0,-999.0,1,-99.99,,,0.00,Acu-Link.com,2013-08-06 11:14:00,
2013-08-06 07:30:00,71.2,-34.1,29.97,SSW,202,2.7,-999.0,1,-99.99,,,0.00,Acu-Link.com,2013-08-06 11:30:00,
2013-08-06 07:45:00,72.7,-33.2,29.98,SSW,202,1.7,-999.0,1,-99.99,,,0.00,Acu-Link.com,2013-08-06 11:45:00,
2013-08-06 08:00:00,73.2,-32.9,29.98,South,180,2.7,-999.0,1,-99.99,,,0.00,Acu-Link.com,2013-08-06 12:00:00,
2013-08-06 08:17:00,73.4,-32.8,29.99,South,180,1.1,-999.0,1,-99.99,,,0.00,Acu-Link.com,2013-08-06 12:17:00,
2013-08-06 08:32:00,73.9,-32.5,30.01,SSW,202,2.7,-999.0,1,-99.99,,,0.00,Acu-Link.com,2013-08-06 12:32:00,
2013-08-06 08:48:00,74.3,-32.2,30.01,SSW,202,1.7,-999.0,1,-99.99,,,0.00,Acu-Link.com,2013-08-06 12:48:00,
2013-08-06 09:03:00,73.8,-32.5,30.01,SSW,202,2.7,-999.0,1,-99.99,,,0.00,Acu-Link.com,2013-08-06 13:03:00,
2013-08-06 09:18:00,73.6,-32.7,30.01,SSW,202,1.7,-999.0,1,-99.99,,,0.00,Acu-Link.com,2013-08-06 13:18:00,
2013-08-06 09:33:00,73.8,-32.5,30.00,SSW,202,3.7,-999.0,1,-99.99,,,0.00,Acu-Link.com,2013-08-06 13:33:00,
2013-08-06 09:48:00,74.3,-32.2,30.01,SSW,202,4.2,-999.0,1,-99.99,,,0.00,Acu-Link.com,2013-08-06 13:48:00,
2013-08-06 10:03:00,72.3,71.7,30.03,SSE,157,6.3,-999.0,98,-99.99,,,0.00,Acu-Link.com,2013-08-06 14:03:00,
2013-08-06 10:18:00,71.2,-34.1,30.02,SSW,202,4.7,-999.0,1,-99.99,,,0.00,Acu-Link.com,2013-08-06 14:18:00,
2013-08-06 10:34:00,70.3,-34.6,30.03,SW,225,2.7,-999.0,1,-99.99,,,0.00,Acu-Link.com,2013-08-06 14:34:00,
2013-08-06 10:49:00,70.0,-34.8,30.03,SSW,202,2.7,-999.0,1,-99.99,,,0.00,Acu-Link.com,2013-08-06 14:49:00,
2013-08-06 11:04:00,70.2,-34.7,30.04,SSW,202,5.8,-999.0,1,-99.99,,,0.00,Acu-Link.com,2013-08-06 15:04:00,
2013-08-06 11:19:00,70.2,-34.7,30.04,WNW,292,5.3,-999.0,1,-99.99,,,0.00,Acu-Link.com,2013-08-06 15:19:00,
2013-08-06 11:34:00,70.2,-34.7,30.04,WNW,292,2.7,-999.0,1,-99.99,,,0.00,Acu-Link.com,2013-08-06 15:34:00,
2013-08-06 11:50:00,69.8,-34.9,30.04,NW,315,2.7,-999.0,1,-99.99,,,0.00,Acu-Link.com,2013-08-06 15:50:00,
2013-08-06 12:05:00,69.8,-34.9,30.05,SSW,202,2.2,-999.0,1,-99.99,,,0.00,Acu-Link.com,2013-08-06 16:05:00,
2013-08-06 12:20:00,69.6,-35.1,30.05,SSW,202,1.7,-999.0,1,-99.99,,,0.00,Acu-Link.com,2013-08-06 16:20:00,
2013-08-06 12:35:00,70.3,-34.6,30.05,SSW,202,3.2,-999.0,1,-99.99,,,0.00,Acu-Link.com,2013-08-06 16:35:00,
2013-08-06 12:51:00,70.7,-34.4,30.04,SSW,202,3.2,-999.0,1,-99.99,,,0.00,Acu-Link.com,2013-08-06 16:51:00,
2013-08-06 13:06:00,70.9,-34.3,30.05,SSW,202,4.7,-999.0,1,-99.99,,,0.00,Acu-Link.com,2013-08-06 17:06:00,
2013-08-06 13:21:00,71.4,-34.0,30.04,WSW,247,3.7,-999.0,1,-99.99,,,0.00,Acu-Link.com,2013-08-06 17:21:00,
2013-08-06 13:36:00,70.9,-34.3,30.05,SSW,202,5.3,-999.0,1,-99.99,,,0.00,Acu-Link.com,2013-08-06 17:36:00,
2013-08-06 13:51:00,70.3,-34.6,30.05,South,180,5.3,-999.0,1,-99.99,,,0.00,Acu-Link.com,2013-08-06 17:51:00,
2013-08-06 14:07:00,70.3,-34.6,30.04,SE,135,3.7,-999.0,1,-99.99,,,0.00,Acu-Link.com,2013-08-06 18:07:00,
2013-08-06 14:22:00,70.5,-34.5,30.04,South,180,2.2,-999.0,1,-99.99,,,0.00,Acu-Link.com,2013-08-06 18:22:00,
2013-08-06 14:37:00,71.1,-34.2,30.04,SSE,157,2.2,-999.0,1,-99.99,,,0.00,Acu-Link.com,2013-08-06 18:37:00,
2013-08-06 14:54:00,71.4,-34.0,30.04,SSE,157,4.2,-999.0,1,-99.99,,,0.00,Acu-Link.com,2013-08-06 18:54:00,
2013-08-06 15:09:00,71.8,-33.7,30.04,South,180,2.2,-999.0,1,-99.99,,,0.00,Acu-Link.com,2013-08-06 19:09:00,
2013-08-06 15:24:00,72.0,-33.6,30.03,South,180,0.0,-999.0,1,-99.99,,,0.00,Acu-Link.com,2013-08-06 19:24:00,
2013-08-06 15:39:00,71.8,-33.7,30.03,SW,225,3.7,-999.0,1,-99.99,,,0.00,Acu-Link.com,2013-08-06 19:39:00,
2013-08-06 15:55:00,72.5,-33.3,30.03,SW,225,1.7,-999.0,1,-99.99,,,0.00,Acu-Link.com,2013-08-06 19:55:00,
2013-08-06 16:10:00,73.0,-33.0,30.03,SSW,202,4.7,-999.0,1,-99.99,,,0.00,Acu-Link.com,2013-08-06 20:10:00,
2013-08-06 16:25:00,72.1,-33.6,30.03,SW,225,4.2,-999.0,1,-99.99,,,0.00,Acu-Link.com,2013-08-06 20:25:00,
2013-08-06 16:40:00,72.1,-33.6,30.03,SSW,202,3.7,-999.0,1,-99.99,,,0.00,Acu-Link.com,2013-08-06 20:40:00,
2013-08-06 16:55:00,72.3,-33.4,30.03,SSW,202,3.2,-999.0,1,-99.99,,,0.00,Acu-Link.com,2013-08-06 20:55:00,
2013-08-06 17:10:00,72.3,-33.4,30.03,SSW,202,2.7,-999.0,1,-99.99,,,0.00,Acu-Link.com,2013-08-06 21:10:00,
2013-08-06 17:26:00,72.5,-33.3,30.04,SSW,202,4.7,-999.0,1,-99.99,,,0.00,Acu-Link.com,2013-08-06 21:26:00,
2013-08-06 17:41:00,72.5,-33.3,30.04,ESE,112,4.7,-999.0,1,-99.99,,,0.00,Acu-Link.com,2013-08-06 21:41:00,
2013-08-06 17:56:00,69.6,-35.1,30.04,SSE,157,5.3,-999.0,1,-99.99,,,0.00,Acu-Link.com,2013-08-06 21:56:00,
2013-08-06 18:12:00,68.7,-35.6,30.05,South,180,5.3,-999.0,1,-99.99,,,0.00,Acu-Link.com,2013-08-06 22:12:00,
2013-08-06 18:27:00,68.9,-35.5,30.04,ESE,112,4.2,-999.0,1,-99.99,,,0.00,Acu-Link.com,2013-08-06 22:27:00,
2013-08-06 18:42:00,69.1,-35.4,30.04,East,90,4.7,-999.0,1,-99.99,,,0.00,Acu-Link.com,2013-08-06 22:42:00,
2013-08-06 18:57:00,69.6,-35.1,30.04,East,90,4.2,-999.0,1,-99.99,,,0.00,Acu-Link.com,2013-08-06 22:57:00,
2013-08-06 19:12:00,69.8,-34.9,30.02,East,90,5.8,-999.0,1,-99.99,,,0.00,Acu-Link.com,2013-08-06 23:12:00,
2013-08-06 19:27:00,70.3,-34.6,30.03,East,90,3.7,-999.0,1,-99.99,,,0.00,Acu-Link.com,2013-08-06 23:27:00,
2013-08-06 19:42:00,70.3,-34.6,30.03,East,90,4.7,-999.0,1,-99.99,,,0.00,Acu-Link.com,2013-08-06 23:42:00,
2013-08-06 19:58:00,70.3,-34.6,30.02,East,90,4.7,-999.0,1,-99.99,,,0.00,Acu-Link.com,2013-08-06 23:58:00,
2013-08-06 20:13:00,70.3,-34.6,30.03,East,90,4.7,-999.0,1,-99.99,,,0.00,Acu-Link.com,2013-08-07 00:13:00,
2013-08-06 20:28:00,70.3,-34.6,30.03,ESE,112,4.2,-999.0,1,-99.99,,,0.00,Acu-Link.com,2013-08-07 00:28:00,
2013-08-06 20:43:00,70.3,-34.6,30.03,ESE,112,3.7,-999.0,1,-99.99,,,0.00,Acu-Link.com,2013-08-07 00:43:00,
2013-08-06 20:58:00,70.5,-34.5,30.04,ESE,112,4.2,-999.0,1,-99.99,,,0.00,Acu-Link.com,2013-08-07 00:58:00,
2013-08-06 21:14:00,70.9,-34.3,30.04,SE,135,2.7,-999.0,1,-99.99,,,0.00,Acu-Link.com,2013-08-07 01:14:00,
2013-08-06 21:29:00,70.9,-34.3,30.04,SW,225,3.2,-999.0,1,-99.99,,,0.00,Acu-Link.com,2013-08-07 01:29:00,
2013-08-06 21:44:00,70.9,-34.3,30.04,SSW,202,3.2,-999.0,1,-99.99,,,0.00,Acu-Link.com,2013-08-07 01:44:00,
2013-08-06 21:59:00,71.1,-34.2,30.04,SSW,202,2.7,-999.0,1,-99.99,,,0.00,Acu-Link.com,2013-08-07 01:59:00,
2013-08-06 22:15:00,71.2,-34.1,30.04,SSW,202,2.7,-999.0,1,-99.99,,,0.00,Acu-Link.com,2013-08-07 02:15:00,
2013-08-06 22:30:00,71.4,-34.0,30.03,South,180,3.2,-999.0,1,-99.99,,,0.00,Acu-Link.com,2013-08-07 02:30:00,
2013-08-06 22:45:00,71.4,-34.0,30.03,SSE,157,3.2,-999.0,1,-99.99,,,0.00,Acu-Link.com,2013-08-07 02:45:00,
2013-08-06 23:00:00,71.6,-33.9,30.02,SSE,157,5.8,-999.0,1,-99.99,,,0.00,Acu-Link.com,2013-08-07 03:00:00,
2013-08-06 23:16:00,71.6,-33.9,30.03,SSE,157,2.7,-999.0,1,-99.99,,,0.00,Acu-Link.com,2013-08-07 03:16:00,
2013-08-06 23:31:00,71.6,-33.9,30.03,SSE,157,3.7,-999.0,1,-99.99,,,0.00,Acu-Link.com,2013-08-07 03:31:00,
2013-08-06 23:46:00,72.0,-33.6,30.02,SSE,157,2.7,-999.0,1,-99.99,,,0.00,Acu-Link.com,2013-08-07 03:46:00,